Preview of NWS' New Version of Forecast
This preview is not operational and should not be used for support decisions.

Regional Weather Roundup (RWR)

Issued by National Weather Service (NWS)

                            
000
ASUS43 KMKX 182300
RWRWI 

WISCONSIN REGIONAL WEATHER ROUNDUP
NATIONAL WEATHER SERVICE MILWAUKEE/SULLIVAN WI
600 PM CDT TUE JUN 18 2019

NOTE: "FAIR" INDICATES FEW OR NO CLOUDS BELOW 12,000 FEET WITH NO
SIGNIFICANT WEATHER AND/OR OBSTRUCTIONS TO VISIBILITY.

WIZ001-002-006>008-014>016-023>028-190000-
NORTHWEST WISCONSIN
  
CITY           SKY/WX    TMP DP  RH WIND       PRES   REMARKS
SUPERIOR ARPT  CLOUDY    54  47  80 NE6       29.93F                  
ASHLAND        FAIR      64  54  69 N9        29.93S                  
HAYWARD        CLOUDY    69  53  56 VRB3      29.91F                  
SIREN          PTSUNNY   70  52  52 CALM      29.91S                  
CUMBERLAND     CLOUDY    66  50  55 N5        29.91F                  
RICE LAKE      CLOUDY    69  52  54 NW3       29.92F                  
CHETEK         CLOUDY    70  53  56 N3        29.90F                  
LADYSMITH      CLOUDY    69  53  56 NW6       29.92F                  
EAU CLAIRE     NOT AVBL                                               
MENOMONIE      PTSUNNY   69  49  50 NW8       29.89F                  
NEW RICHMOND   FAIR      72  48  42 N6        29.90F                  
OSCEOLA        FAIR      71  52  51 CALM      29.93F                  
$$
 
WIZ003>005-009-010-017-018-190000-
NORTH CENTRAL WISCONSIN
  
CITY           SKY/WX    TMP DP  RH WIND       PRES   REMARKS
MANITOWISH WTR FAIR      66  50  56 N7        29.91S                  
ARBOR VITAE    PTSUNNY   67  53  60 NW5       29.90F                  
WOODRUFF       PTSUNNY   67  53  60 NW5       29.90F                  
RHINELANDER    FAIR      71  50  47 VRB6      29.91S                  
EAGLE RIVER    CLOUDY    65  48  54 NW6       29.90S                  
LAND O LAKES   FAIR      65  50  58 N7        29.92S                  
PHILLIPS       CLOUDY    65  51  60 N6        29.91F                  
TOMAHAWK       CLOUDY    67  51  54 NW6       29.90F                  
MEDFORD        CLOUDY    67  52  57 NW8       29.89F                  
MERRILL        FAIR      70  52  52 N3        29.89S                  
$$
 
WIZ029-030-035-036-043>047-190000-
CENTRAL WISCONSIN
  
CITY           SKY/WX    TMP DP  RH WIND       PRES   REMARKS
WAUSAU         FAIR      72  50  45 W8        29.86F                  
MOSINEE        MOSUNNY   72  52  49 W9        29.89F                  
MARSHFIELD     FAIR      71  53  52 NW7       29.88F                  
STEVENS POINT  PTSUNNY   71  51  49 NW5       29.88F                  
WAUPACA        CLOUDY    74  63  66 W6        29.87F                  
WAUTOMA        CLOUDY    71  63  75 SW6       29.87F                  
WISC RAPIDS    CLOUDY    75  54  47 NW7       29.88F                  
CAMP DOUGLAS   NOT AVBL                                               
$$
 
WIZ011>013-019>022-031-037>040-048>050-190000-
NORTHEAST WISCONSIN
  
CITY           SKY/WX    TMP DP  RH WIND       PRES   REMARKS
ANTIGO         FAIR      69  52  53 N12       29.88F                  
SHAWANO        CLOUDY    76  55  48 W6        29.85S                  
OCONTO         CLOUDY    70  64  82 SE6       29.84F                  
STURGEON BAY   CLOUDY    69  63  81 SW6       29.87S                  
GREEN BAY      CLOUDY    71  65  81 SW7       29.86S                  
MANITOWOC      CLOUDY    62  57  83 E6        29.88F                  
APPLETON       CLOUDY    68  57  68 W8        29.85F                  
CLINTONVILLE   FAIR      75  51  41 NW6       29.85F                  
OSHKOSH        PTSUNNY   72  62  71 SW6       29.86F                  
$$
 
WIZ032>034-041-042-053>061-190000-
SOUTHWEST WISCONSIN
  
CITY           SKY/WX    TMP DP  RH WIND       PRES   REMARKS
LA CROSSE      PTSUNNY   76  54  46 NW10      29.87F                  
SPARTA         CLOUDY    73  55  54 CALM      29.89F                  
VIROQUA        PTSUNNY   72  63  73 W5        29.90F                  
BOSCOBEL       PTSUNNY   74  63  68 CALM      29.88F                  
PRAIRIE DU CHI PTSUNNY   73  61  66 NW6       29.87F                  
PLATTEVILLE    PTSUNNY   74  66  77 NW6       29.89S                  
$$

WIZ056-057-062-063-064-067-068-190000-
SOUTH CENTRAL WISCONSIN
  
CITY           SKY/WX    TMP DP  RH WIND       PRES   REMARKS
REEDSBURG      CLOUDY    73  65  76 NW5       29.88F                  
BARABOO/DELLS  CLOUDY    72  61  69 NW7       29.88F                  
LONE ROCK      NOT AVBL                                               
MINERAL POINT  FAIR      75  66  73 W6        29.89F                  
MADISON        PTSUNNY   76  62  62 NW6       29.86F                  
MIDDLETON      FAIR      77  63  60 W7        29.88F                  
WATERTOWN      CLOUDY    75  63  64 NW8       29.86S                  
MONROE         PTSUNNY   75  60  58 W9        29.88F                  
JANESVILLE     MOSUNNY   79  57  47 W5        29.86F HX  80           
$$
 
WIZ051-052-058>065-066-070>072-190000-
SOUTHEAST WISCONSIN
  
CITY           SKY/WX    TMP DP  RH WIND       PRES   REMARKS
MILWAUKEE      PTSUNNY   73  59  61 SE10      29.85F                  
WAUKESHA       MOSUNNY   75  55  50 W8        29.87F                  
MILWAUKEE/TIMM MOSUNNY   73  55  53 E5        29.86F                  
RACINE         FAIR      69  57  65 SE9       29.88F                  
KENOSHA        FAIR      75  59  57 SE10      29.86F                  
FOND DU LAC    CLOUDY    70  65  84 CALM      29.87F                  
SHEBOYGAN      FAIR      70  60  70 S9        29.87S                  
WEST BEND      PTSUNNY   72  59  64 SE5       29.86F                  
JUNEAU         CLOUDY    73  61  66 W5        29.88F                  
$$

LSZ147-162-190000-
LAKE SUPERIOR
  
STATION/POSITION TIME  TEMP    WIND        PRES    WAVE
                       AIR SEA DIR/SP/G            HT/PER
                 (UTC) (F)     (DEG/KT/KT) (MB)    (FT/S)
W MID LAKE BUOY  2150   41 39  280/  6/  6 1014.6R   0
$$
 
LMZ867-665-643>646-190000-
LAKE MICHIGAN
  
STATION/POSITION TIME  TEMP    WIND        PRES    WAVE
                       AIR SEA DIR/SP/G            HT/PER
                 (UTC) (F)     (DEG/KT/KT) (MB)    (FT/S)
S GREEN BAY BUOY 2130   67 64  190/ 12/ 16 1011.2F
N MID LAKE BUOY  2240   44 39  180/ 10/ 14 1011.8F
NORTHPORT PIER   2240   63     140/  3/  6 1010.5F
SHEBOYGAN LAKESH 2200   55     170/ 15/ 15 1011.6F
ATWATER BUOY     2230   56 54  170/  8/ 10 1011.6F   1/ 3
MILWAUKEE LAKESH 2250   57     150/ 12/ 12   N/A
S MID LAKE BUOY  2240   57 46  130/  2/  2 1012.4F
KENOSHA   LAKESH 2200   59     180/  9/ 11 1011.9
$$

TC  - TEMPERATURE IN CELSIUS
VSB - VISIBILITY IN STATUTE MILES
WCI - WIND CHILL INDEX
HX  - HEAT INDEX